Regional Weather Roundup
Issued by NWS Sterling, VA

Home | Current Version | Previous Version | Graphics & Text | Print | Product List | Glossary On
Versions: 1 2 3 4 5 6 7 8 9 10 11 12 13 14 15 16 17 18 19 20 21 22 23 24 25 26 27
000
ASUS41 KLWX 041610
RWRLWX

REGIONAL WEATHER ROUNDUP
NATIONAL WEATHER SERVICE BALTIMORE MD/WASHINGTON DC
1200 PM EDT WED MAY 04 2016

Note: "FAIR" indicates few or no clouds below 12,000 feet
with no significant weather and/or obstructions to visibility.
 TC=TEMPERATURE CELSIUS

 * =Non NWS site. Station does not report precipitation (e.g. rain,
    snow, etc.), thunder, or fog.

DCZ001-MDZ009-015-VAZ040>042-051-053>054-041700-
WASHINGTON METRO

CITY           SKY/WX    TMP DP  RH WIND       PRES   REMARKS
WASHINGTON NAT CLOUDY    57  52  83 N6        29.72F
DULLES         CLOUDY    56  52  86 E5        29.72S
ANDREWS AFB    CLOUDY    54  51  90 E5        29.70F
FT BELVOIR     PTSUNNY   57  52  83 E2        29.72S
QUANTICO       CLOUDY    57  53  86 CALM      29.72F
COLLEGE PARK*  CLOUDY    54  50  87 E5        29.72F
LEESBURG*      CLOUDY    55  55 100 SE3       29.73S FOG
MANASSAS*      CLOUDY    55  55 100 SE5       29.72S
GAITHERSBURG*  CLOUDY    54  48  82 NE3       29.76S

$$

MDZ006>007-011-014-041700-
BALTIMORE METRO

CITY           SKY/WX    TMP DP  RH WIND       PRES   REMARKS
BWI AIRPORT    CLOUDY    54  50  86 E7        29.71F
MD SCIENCE CTR   N/A     55  50  83 MISG      29.73F
MARTIN STATE   CLOUDY    55  54  94 NE8       29.74F
ANNAPOLIS      CLOUDY    54  50  86 E5        29.71F
FORT MEADE*    CLOUDY    54  50  87 E7        29.74F

$$

MDZ012-015-019>023-041700-
MARYLAND EASTERN SHORE

CITY           SKY/WX    TMP DP  RH WIND       PRES   REMARKS
OCEAN CITY     CLOUDY    52  51  97 NE8       29.71R FOG
SALISBURY      LGT RAIN  53  53 100 NE8       29.70S FOG
CAMBRIDGE*     CLOUDY    54  52  94 NE7       29.71R
EASTON*        CLOUDY   N/A N/A N/A NE6       29.75S

$$

MDZ017>025-041700-
SOUTHERN MARYLAND

CITY           SKY/WX    TMP DP  RH WIND       PRES   REMARKS
PATUXENT RIVER DRIZZLE   56  51  84 NE7       29.70F
ST INIGOES     CLOUDY    57  53  86 NE7       29.69F
LEONARDTOWN*   CLOUDY    55  52  88 CALM      29.72S

$$

MDZ003>005-041700-
NORTH CENTRAL MARYLAND

CITY           SKY/WX    TMP DP  RH WIND       PRES   REMARKS
FREDERICK*     CLOUDY    55  55 100 NE3       29.74F
HAGERSTOWN APT LGT RAIN  57  52  83 S7        29.70S
WESTMINSTER*   CLOUDY    54  32  43 E5        29.72F

$$

MDZ501>502-041700-
WESTERN MARYLAND

CITY           SKY/WX    TMP DP  RH WIND       PRES   REMARKS
OAKLAND*       CLOUDY    45  45 100 NW3       29.71S FOG
CUMBERLAND*    CLOUDY    61  52  72 W5        29.73F

$$

VAZ025>031-041700-
SHENANDOAH VALLEY

CITY           SKY/WX    TMP DP  RH WIND       PRES   REMARKS
WINCHESTER*    CLOUDY    63  50  63 CALM      29.69F
FRONT ROYAL*   CLOUDY    63  54  72 CALM      29.68F
LURAY*         FAIR      63  50  63 CALM      29.68F
NEW MARKET*    CLOUDY    62  50  65 N6        29.67F
STAUNTON*      PTSUNNY   62  51  66 CALM      29.70F
WAYNESBORO*    CLOUDY    62  46  55 SW6       29.68F

$$

WVZ021-048>050-054>055-041700-
EASTERN WEST VIRGINIA PANHANDLE

CITY           SKY/WX    TMP DP  RH WIND       PRES   REMARKS
MARTINSBURG    CLOUDY    58  53  84 SE7       29.70S
PETERSBURG*    LGT RAIN  58  52  81 W7        29.71S

$$

VAZ036>039-050-041700-
CENTRAL FOOTHILLS

CITY           SKY/WX    TMP DP  RH WIND       PRES   REMARKS
CHARLOTTESVILL LGT RAIN  60  52  74 E6        29.68F
CULPEPER*      CLOUDY    60  56  88 E5        29.71S
ORANGE*        CLOUDY    63  54  72 NE3       29.71F
GORDONSVILLE*  CLOUDY    62  53  73 CALM      29.69F
WARRENTON*     CLOUDY    59  52  76 NE3       29.71S

$$

VAZ055>057-041700-
NORTH AND CENTRAL PIEDMONT

CITY           SKY/WX    TMP DP  RH WIND       PRES   REMARKS
FREDERICKSBRG* CLOUDY    57  57 100 E3        29.71S
STAFFORD*      CLOUDY    56  53  89 SE3       29.76S

$$

NCZ024-NYZ072-PAZ021-071-VAZ022-071-041700-
OTHER REGIONAL OBSERVATIONS

CITY           SKY/WX    TMP DP  RH WIND       PRES   REMARKS
NEW YORK CITY  CLOUDY    50  45  83 E12G18    29.80F
PHILADELPHIA   CLOUDY    54  47  77 E12       29.74F
PITTSBURGH     PTSUNNY   60  42  51 VRB5      29.68F
ROANOKE        CLOUDY    63  46  54 W7        29.72F
RICHMOND       CLOUDY    59  55  87 SE3       29.70R
RALEIGH        PTSUNNY   69  57  65 VRB5      29.70F

$$

ANZ530>537-041700-
MARINE OBSERVATIONS

STATION/POSITION TIME  TEMP    WIND        PRES
                       AIR SEA DIR/SP/G
                 (UTC) (F)     (DEG/KT/KT) (MB)
THOMAS PT LIGHT  1600   53 59   30/  6/  8 1007.4F
BALT KEY BRIDGE  1500   53      70/  7/  8 1006.9S
COVE POINT       1500   53     340/  3/  5 1006.7F
LEWISETTA        1500   56 63   20/  5/  6 1005.5F
SOLOMONS ISLAND  1500   54 60  350/  5/  6   N/A
PINEY POINT      1500           20/  2/  3   N/A

$$





USA.gov is the U.S. government's official web portal to all federal, state and local government web resources and services.